Weather History for Bridgeport, CT

Change the Weather History Date:

Sunday, January 12, 2014

  Actual Average Record
Temperature  
Mean Temperature 42 °F 30 °F  
Max Temperature 49 °F 37 °F 52 °F (1975)
Min Temperature 34 °F 23 °F -3 °F (1981)
Degree Days  
Heating Degree Days 23 35  
Month to date heating degree days 460 416  
Since 1 July heating degree days 2334 2309  
Cooling Degree Days 0 0  
Month to date cooling degree days 0 0  
Year to date cooling degree days 0 0  
Moisture  
Dew Point 34 °F    
Average Humidity 71    
Maximum Humidity 100    
Minimum Humidity 42    
Precipitation  
Precipitation 0.05 in 0.11 in 1.25 in (2011)
Month to date precipitation 1.75 1.25  
Year to date precipitation 1.75 1.25  
Snow  
Snow 0.00 in 0.20 in 15.00 in (2011)
Month to date snowfall 5.2 3.1  
Since 1 July snowfall 16.1 8.9  
Snow Depth 0.00 in    
Sea Level Pressure  
Sea Level Pressure 29.66 in    
Wind  
Wind Speed 11 mph (West)    
Max Wind Speed 26 mph    
Max Gust Speed 33 mph    
Visibility 8 miles    
Events Fog , Rain    
T = Trace of Precipitation, MM = Missing Value Source: NWS Daily Summary

Daily Weather History Graph

Daily Weather History Graph

Search for Another Location

Airport:

Trip Planner

Search our weather history database for the weather conditions in past years. The results will help you decide how hot, cold, wet, or windy it might be!

Date:

Astronomy

Jan. 12, 2014 Rise Set
Actual Time 7:16 AM EST 4:45 PM EST
Civil Twilight 6:46 AM EST 5:15 PM EST
Nautical Twilight 6:12 AM EST 5:49 PM EST
Astronomical Twilight 5:38 AM EST 6:23 PM EST
Moon 2:11 PM EST (1/12) 4:12 AM EST (1/12)
Length of Visible Light 10h 29m
Length of Day
9h 28m
Waxing Gibbous, 89% of the Moon is Illuminated
Jan 12
Waxing Gibbous
Jan 15
Full
Jan 24
Last Quarter
Jan 30
New
Feb 6
First Quarter

Hourly Weather History & Observations

Time (EST) Temp. Windchill Dew Point Humidity Pressure Visibility Wind Dir Wind Speed Gust Speed Precip Events Conditions
12:02 AM 46.4 °F 42.9 °F 46.4 °F 100% 29.38 in 0.5 mi WSW 6.9 mph - N/A Fog Fog
12:13 AM 46.4 °F 42.9 °F 46.4 °F 100% 29.39 in 0.5 mi WSW 6.9 mph - N/A Fog Fog
12:19 AM 46.4 °F 42.9 °F 46.4 °F 100% 29.39 in 1.0 mi WSW 6.9 mph - N/A   Overcast
12:29 AM 46.4 °F 42.9 °F 46.4 °F 100% 29.38 in 1.0 mi WSW 6.9 mph - N/A   Overcast
12:50 AM 46.4 °F 43.5 °F 46.4 °F 100% 29.38 in 0.8 mi WSW 5.8 mph - N/A   Overcast
12:52 AM 45.0 °F 41.2 °F 45.0 °F 100% 29.39 in 0.8 mi SW 6.9 mph - N/A   Overcast
1:16 AM 46.4 °F 42.4 °F 46.4 °F 100% 29.39 in 2.0 mi WSW 8.1 mph - 0.00 in Rain Light Rain
1:19 AM 46.4 °F 42.4 °F 46.4 °F 100% 29.39 in 3.0 mi WSW 8.1 mph - 0.00 in Rain Light Rain
1:52 AM 45.0 °F 41.2 °F 45.0 °F 100% 29.41 in 5.0 mi WSW 6.9 mph - 0.05 in Rain Light Rain
2:52 AM 43.0 °F 38.2 °F 43.0 °F 100% 29.43 in 10.0 mi West 8.1 mph - 0.00 in   Overcast
3:52 AM 48.0 °F - 39.9 °F 74% 29.44 in 10.0 mi West 8.1 mph - N/A   Scattered Clouds
4:52 AM 46.9 °F - 32.0 °F 56% 29.47 in 10.0 mi NW 17.3 mph 28.8 mph N/A   Mostly Cloudy
5:52 AM 44.1 °F 38.6 °F 30.9 °F 60% 29.49 in 10.0 mi WNW 10.4 mph 23.0 mph N/A   Clear
6:52 AM 42.1 °F 37.1 °F 30.0 °F 62% 29.54 in 10.0 mi West 8.1 mph - N/A   Clear
7:52 AM 42.1 °F 37.7 °F 30.9 °F 65% 29.60 in 10.0 mi West 6.9 mph - N/A   Mostly Cloudy
8:52 AM 44.1 °F 39.5 °F 30.9 °F 60% 29.65 in 10.0 mi West 8.1 mph - N/A   Mostly Cloudy
9:52 AM 44.1 °F 37.7 °F 28.9 °F 55% 29.70 in 10.0 mi West 12.7 mph 21.9 mph N/A   Mostly Cloudy
10:52 AM 46.0 °F 38.0 °F 28.0 °F 50% 29.71 in 10.0 mi WNW 21.9 mph 33.4 mph N/A   Clear
11:52 AM 46.0 °F 38.8 °F 28.0 °F 50% 29.72 in 10.0 mi West 18.4 mph 28.8 mph N/A   Mostly Cloudy
12:52 PM 46.9 °F - 28.0 °F 48% 29.73 in 10.0 mi WNW 20.7 mph 28.8 mph N/A   Mostly Cloudy
1:52 PM 45.0 °F 37.6 °F 26.1 °F 48% 29.76 in 10.0 mi West 17.3 mph 29.9 mph N/A   Overcast
2:52 PM 46.0 °F 39.0 °F 25.0 °F 44% 29.80 in 10.0 mi WNW 17.3 mph 24.2 mph N/A   Partly Cloudy
3:52 PM 45.0 °F 36.6 °F 25.0 °F 46% 29.85 in 10.0 mi WNW 21.9 mph - N/A   Clear
4:52 PM 42.1 °F 34.9 °F 25.0 °F 51% 29.91 in 10.0 mi West 13.8 mph 23.0 mph N/A   Clear
5:52 PM 41.0 °F 35.2 °F 26.1 °F 55% 29.94 in 10.0 mi West 9.2 mph 18.4 mph N/A   Clear
6:52 PM 41.0 °F 33.5 °F 26.1 °F 55% 29.97 in 10.0 mi West 13.8 mph 24.2 mph N/A   Mostly Cloudy
7:52 PM 39.9 °F 32.9 °F 26.1 °F 58% 29.99 in 10.0 mi West 11.5 mph 16.1 mph N/A   Clear
8:52 PM 37.9 °F - 27.0 °F 65% 30.02 in 10.0 mi Calm Calm - N/A   Clear
9:52 PM 35.1 °F - 28.0 °F 76% 30.02 in 10.0 mi Calm Calm - N/A   Clear
10:52 PM 37.0 °F 32.4 °F 32.0 °F 82% 30.05 in 10.0 mi SW 5.8 mph - N/A   Clear
11:52 PM 35.1 °F 31.0 °F 28.9 °F 78% 30.05 in 10.0 mi WSW 4.6 mph - N/A   Clear